DECAYED

CZ-6A DEB, 61321 (Decayed)

Orbit data source: Space-Track

CZ-6A DEB, 61321 was space debris in LEO originally from a launch on Tue, 06 Aug 2024 UTC launched from the Taiyaun Space Center, China (TSC). Debris objects in space refer to the collection of defunct objects orbiting the Earth. Examples of debris include non-operational satellites, rocket bodies, and fragments generated from explosions, collisions, or faulty payload assembly.

Not visible in the next 10 days
Identifier
61321, 2024-140UJ
Orbit
Decayed
Country
Flag of CNCN / PRC
Related business
Manufacturer
SAST
Mission
Decayed spacecraft
Bus & Motor
Unknown
Mass
Unknown
Launch date (UTC)
2024-08-06 (1 year ago)
Launch vehicle
Unknown
Launch site
Taiyaun Space Center, China (TSC)
Object type
Payload
Rocket body
Debris
Shape & HBR
Unknown shape, 0.1 m
Radar Cross Section
Small (<0.1 m²)

Expand to show TLE details & history
Last TLE update: 5 months ago

TLE from 5 months ago
0 CZ-6A DEB
1 61321U 24140UJ  25166.18571070  .14157989 -10215-5  73012-2 0  9997
2 61321  88.9250 309.7442 0023913 295.4955  64.3870 16.19704690 42730
Epoch: 2025-06-15T04:27Z
TLE epoch observation values (Epoch: 2025-06-15T04:27:25.404Z)
Latitude
-0.0001°
Longitude
-20.82608°
Altitude
216.895 km
Speed
7.78 km/s
True Right ascension
20h 38m 58s
True Declination
0° 00' 00"
Sunlit
Object was in full shadow at epoch
Visualization orbit readout
Latitude
Unknown
Longitude
Unknown
Altitude
Unknown
Speed
Unknown
Apparent Right ascension
Unknown
Apparent Declination
Unknown
Sunlit
N/A
Visualization observer readout
Local Sidereal Time
13:36:49
Azimuth
Unknown
Elevation
Unknown
Doppler factor
Unknown
Orbital elements
Apogee altitude
232.796 km
Perigee altitude
201.254 km
Semi-major axis
6,595.162 km
Eccentricity
0.00239
Inclination
88.925°
RAAN
309.7442°
Arg. of periapsis
295.4955°
True anomaly
64.63441°
Mean anomaly
64.387°
Eccentric anomaly
64.51068°
Mean motion
4.05233 °/min
Orbital period
88.84 mins
BSTAR
0.0073012
Loading maneuver chart data...
Computing Atmospheric mass density...
Loading historical data...
Loading historical data...
Loading historical data...
Loading historical data...
Loading historical data...
Loading historical data...
Loading historical data...

Documentation

Showing up to 5 results
|